User: anonymous   Login
Location: Vancouver
(49.2500°N, 123.1330°W)
Time: 02:19:15
(UTC-08:00)
Language:

JAS-1B - Orbit

View from above orbital plane
View from above orbital plane
View from above satellite
View from above satellite

Ground track
Ground track

The orbit data is extracted from the following two-line orbital elements,

1 20480U 90013C   15027.79351589 -.00000042  00000-0 -19792-4 0  9618
2 20480 099.0742 313.9828 0540099 205.1463 214.0836 12.83401519169946
Epoch (UTC): 27 January 2015 19:02:39
Eccentricity: 0.0540099
inclination: 99.0742°
perigee height: 911 km
apogee height: 1744 km
right ascension of ascending node: 313.9828°
argument of perigee: 205.1463°
revolutions per day: 12.83401519
mean anomaly at epoch: 214.0836°
orbit number at epoch: 16994

The dashed part of the orbit path shows where the satellite is in the earth's shadow,  

DLR